Regional Weather Roundup
Issued by NWS Newport/Morehead, NC

Home | Current Version | Previous Version | Text Only | Print | Product List | Glossary On
Versions: 1 2 3 4 5 6 7 8 9 10 11 12 13 14 15 16 17 18 19 20 21 22 23 24 25 26 27 28 29 30 31 32 33 34 35 36 37 38 39 40 41 42 43 44 45 46 47 48 49 50
000
ASUS42 KMHX 021025
RWRMHX
WEATHER ROUNDUP FOR EASTERN NORTH CAROLINA
NATIONAL WEATHER SERVICE NEWPORT/MOREHEAD CITY NC
600 AM EDT SUN AUG 02 2015

NOTE: "FAIR" INDICATES FEW OR NO CLOUDS BELOW 12,000 FEET
WITH NO SIGNIFICANT WEATHER AND/OR OBSTRUCTIONS TO VISIBILITY

NCZ015>017-031-032-045>047-102-103-021100-
NORTH COAST

CITY           SKY/WX    TMP DP  RH WIND       PRES   REMARKS
EDENTON        PTCLDY    73  70  88 NW6       29.90R
ELIZABETH CITY FOG       72  71  97 CALM      29.90R VSB 1/4
KITTY HAWK     MOSUNNY   77  74  91 W6        29.88S
MANTEO         CLEAR     76  74  94 W7        29.90R

$$

NCZ045>047-081-094-103-104-021100-
CENTRAL COAST

CITY           SKY/WX    TMP DP  RH WIND       PRES   REMARKS
FRISCO         PTCLDY    79  74  84 W7        29.90S
SWANQUARTER      N/A     77 N/A N/A NW6       29.85S

$$

NCZ095-097-098-100-101-021100-
SOUTHERN COAST

CITY           SKY/WX    TMP DP  RH WIND       PRES   REMARKS
BEAUFORT       CLEAR     77  75  93 W5        29.91S
CEDAR ISLAND     N/A     77 N/A N/A SW2       29.94S
JACKSONVILLE   PTCLDY    73  71  93 CALM      29.90S
PINEY ISLAND   SUNNY    N/A N/A N/A SW6       29.90S
WILMINGTON     CLEAR     75  72  90 W3        29.90F


$$

NCZ011>013-027>030-043-044-078>080-089-090>093-098-021100-
COASTAL PLAIN

CITY           SKY/WX    TMP DP  RH WIND       PRES   REMARKS
AHOSKIE        CLEAR     68  63  82 CALM      29.91R
CLINTON        PTCLDY    72  72 100 CALM      29.92R FOG
ELIZABETHTOWN  PTCLDY    73  73  97 CALM      29.92R
GOLDSBORO      CLEAR     73  73 100 SW3       29.90R FOG
GREENVILLE     RAIN      72  72 100 CALM      29.93S VSB 3/4
HAVELOCK       MOCLDY    73  71  93 SW3       29.92R
KENANSVILLE    CLEAR     70  69  96 CALM      29.92S
KINSTON        FOG       71  70  96 CALM      29.92R VSB 1
NEW BERN       CLEAR     74  71  91 CALM      29.92R
RICHLANDS      PTCLDY    72  64  78 CALM      29.92R
ROCKY MOUNT    CLEAR     72  61  68 NW6       29.92R
WASHINGTON     CLOUDY    73  72  97 CALM      29.91S FOG
WHITEVILLE     MOCLDY    73  71  93 CALM      29.92R

$$

AMZ130-135-150-152-154-156-158-170-250-252-270-ANZ085-086-088-633-658-670-021100-
MARINE OBSERVATIONS

STATION/POSITION TIME  TEMP    WIND        PRES    WAVE   SWELL
                       AIR SEA DIR/SP/G            HT/PER HT/PER
                 (UTC) (F)     (DEG/KT/KT) (MB)    (FT/S) (FT/S)
CHESAPEAKE LIGHT 1000   77     280/  9/ 10 1012.7
64 E VA BEACH    0950   80 81  250/  6/  6 1011.7    3/ 7   3/ 7
DUCK             1000   79 76  280/ 10/ 11 1011.2
2 E DUCK         0911      78                N/A     2/11
OREGON INLET     1000   77 81  280/  6/  8 1012.1
13E OREGON INLT  0900      81                N/A     3/ 8   2/13
HATTERAS CG      1000   80 81  260/  9/ 12 1012.3
DIAMOND BUOY     0950   80 85  270/ 12/ 16 1012.5    4/ 7   2/ 7
CAPE LOOKOUT     1000   79     280/  9/ 11 1012.2
BEAUFORT LAB     1000   79 83  280/  3/  6 1011.9
30 SE NEW RVR IN NOT AVBL
27 SE WRIGHTSVLE 1000   78 82  320/  6/  8   N/A
5 SE WRIGHTSVLE  0908   80 83  270/  6/  8 1012.7
225 S CAPE HAT   0950   82 81  230/ 14/ 16 1015.0    6/ 8   5/ 8
41 SE CHARLESTON 0950   80 84  240/  8/ 10 1012.2    4/ 6   3/ 6

$$


USA.gov is the U.S. government's official web portal to all federal, state and local government web resources and services.